Regional Weather Roundup
Issued by NWS

Home | Current Version | Previous Version | Text Only | Print | Product List | Glossary Off
Versions: 1 2 3 4 5 6 7 8 9 10 11 12 13 14 15 16 17 18 19 20 21 22 23 24 25 26 27 28 29 30 31 32 33 34 35 36 37 38 39 40 41 42 43 44 45 46 47 48 49 50

000
ASUS43 KMKX 212300
RWRWI

WISCONSIN REGIONAL WEATHER ROUNDUP
NATIONAL WEATHER SERVICE MILWAUKEE/SULLIVAN WI
500 PM CST SAT JAN 21 2017

NOTE: "FAIR" INDICATES FEW OR NO CLOUDS BELOW 12,000 FEET WITH NO
SIGNIFICANT WEATHER AND/OR OBSTRUCTIONS TO VISIBILITY.

WIZ001-002-006>008-014>016-023>028-220000-
NORTHWEST WISCONSIN

CITY           SKY/WX    TMP DP  RH WIND       PRES   REMARKS
SUPERIOR ARPT  CLOUDY    35  35 100 NE8       29.49R FOG     WCI  28
ASHLAND        FOG       33  33 100 N3        29.48R VSB 1/4
HAYWARD        CLOUDY    36  35  96 NE8       29.44R FOG     WCI  30
SIREN          DRZL/FOG  36  36  99 CALM      29.45R VSB 1
CUMBERLAND     FOG       34  34 100 CALM      29.44R VSB 1/4
RICE LAKE      DRZL/FOG  36  36  99 CALM      29.46R VSB 1/4
CHETEK         FOG       35  35 100 CALM      29.44R VSB 1/4
LADYSMITH      FOG       37  37  97 CALM      29.46R VSB 1/2
EAU CLAIRE     NOT AVBL
MENOMONIE        N/A    N/A N/A N/A MISG        N/A
NEW RICHMOND   FOG       35  35 100 CALM      29.45R VSB 1/4
OSCEOLA        FOG       37  37 100 CALM      29.48R VSB 1/2
$$

WIZ003>005-009-010-017-018-220000-
NORTH CENTRAL WISCONSIN

CITY           SKY/WX    TMP DP  RH WIND       PRES   REMARKS
MANITOWISH WTR DRZL/FOG  36  36 100 CALM      29.44R VSB 1
ARBOR VITAE    LGT RAIN  37  36  96 SE5       29.44R VSB 1   WCI  33
WOODRUFF       LGT RAIN  37  36  96 SE5       29.44R VSB 1   WCI  33
RHINELANDER    LGT RAIN  36  36 100 SE6       29.45R VSB 3/4 WCI  31
EAGLE RIVER    CLOUDY    36  36 100 SE7       29.44S WCI  30
LAND O LAKES   CLOUDY    37  36  98 E5        29.47S WCI  33
PHILLIPS       DRIZZLE   36  36 100 CALM      29.43R
TOMAHAWK       DRZL/FOG  35  34  96 CALM      29.45R VSB 1/2
MEDFORD        FOG       35  35 100 SE3       29.43R VSB 1/4
MERRILL        DRZL/FOG  36  36 100 CALM        N/A  VSB 1/4
$$

WIZ029-030-035-036-043>047-220000-
CENTRAL WISCONSIN

CITY           SKY/WX    TMP DP  RH WIND       PRES   REMARKS
WAUSAU         FOG       35  35 100 SE3       29.45R VSB 1/2
MOSINEE        LGT RAIN  36  36 100 SE5       29.47R VSB 1/2 WCI  32
MARSHFIELD     FOG       35  35 100 S3        29.44R VSB<1/4
STEVENS POINT  FOG       33  33 100 CALM      29.47R VSB 1/4
WAUPACA        FOG       38  37  97 CALM      29.48R VSB 1/2
WAUTOMA        FOG       37  36  96 CALM      29.48R VSB 1/4
WISC RAPIDS    FOG       37  37 100 CALM      29.48R VSB 1/4
CAMP DOUGLAS   CLOUDY    39  39 100 CALM      29.47R FOG
$$

WIZ011>013-019>022-031-037>040-048>050-220000-
NORTHEAST WISCONSIN

CITY           SKY/WX    TMP DP  RH WIND       PRES   REMARKS
ANTIGO         CLOUDY    34  34 100 E3        29.45R FOG
SHAWANO        FOG       36  35  96 CALM      29.47S VSB 3/4
OCONTO         CLOUDY    35  35  99 CALM      29.47F VSB 1/2
STURGEON BAY   LGT RAIN  40  40 100 SE3       29.49R VSB 1/2
GREEN BAY      FOG       37  37 100 N3        29.47R VSB 1/4
MANITOWOC      NOT AVBL
APPLETON       FOG       36  36 100 CALM      29.45R VSB 1/8
CLINTONVILLE   FOG       36  36 100 N3        29.47R VSB 1
OSHKOSH        FOG       39  38  96 S6        29.46R VSB 1/4 WCI  35
$$

WIZ032>034-041-042-053>061-220000-
SOUTHWEST WISCONSIN

CITY           SKY/WX    TMP DP  RH WIND       PRES   REMARKS
LA CROSSE      FOG       42  39  89 S7        29.46R VSB 1/4
SPARTA         CLOUDY    38  38  99 S3        29.47R
VIROQUA        CLOUDY    39  39 100 S8        29.46R VSB<1/4 WCI  33
BOSCOBEL       CLOUDY    44  42  93 SW6       29.49R
PRAIRIE DU CHI CLOUDY    42  41  97 CALM      29.49R FOG
PLATTEVILLE    CLOUDY    42  42 100 SW8       29.49R
$$

WIZ056-057-062-063-064-067-068-220000-
SOUTH CENTRAL WISCONSIN

CITY           SKY/WX    TMP DP  RH WIND       PRES   REMARKS
REEDSBURG      CLOUDY    40  40 100 CALM      29.48R FOG
BARABOO/DELLS  CLOUDY    40  40  99 SW7       29.47R FOG
LONE ROCK      FOG       41  40  96 CALM      29.50R VSB 1/4
MINERAL POINT  CLOUDY    43  43 100 S3        29.48R FOG
MADISON        CLOUDY    43  42  97 W3        29.49R FOG
MIDDLETON      CLOUDY    44  44 100 W5        29.49R
WATERTOWN      CLOUDY    45  45 100 W5        29.47R
MONROE         CLOUDY    41  41 100 SW6       29.48R FOG
JANESVILLE     CLOUDY    46  45  93 W9        29.49R FOG
$$

WIZ051-052-058>065-066-070>072-220000-
SOUTHEAST WISCONSIN

CITY           SKY/WX    TMP DP  RH WIND       PRES   REMARKS
MILWAUKEE      PTCLDY    51  42  71 SW7       29.48R
WAUKESHA       PTCLDY    46  41  81 SW7       29.48R
MILWAUKEE/TIMM MOCLDY    52  43  71 SW6       29.48R
RACINE         CLEAR     50  42  74 SW7       29.50R
KENOSHA        CLEAR     51  42  71 SW6       29.49R
FOND DU LAC    FOG       43  41  93 SW5       29.47R VSB 1
SHEBOYGAN      FOG       37  36  96 CALM      29.47R VSB<1/4
WEST BEND      FOG       43  43 100 CALM      29.47R VSB<1/4
JUNEAU         CLOUDY    43  41  94 SW9       29.48R FOG
$$

LSZ147-162-220000-
LAKE SUPERIOR

STATION/POSITION TIME  TEMP    WIND        PRES    WAVE
                       AIR SEA DIR/SP/G            HT/PER
                 (UTC) (F)     (DEG/KT/KT) (MB)    (FT/S)
DEVILS ISLAND    2200   35      70/ 12/ 14  998.8R
PORT WING        2240   33      30/  8/  9  998.6R
SAXON HARBOR     2240   34      60/  3/  5  998.3R
$$

LMZ867-665-643>646-220000-
LAKE MICHIGAN

STATION/POSITION TIME  TEMP    WIND        PRES    WAVE
                       AIR SEA DIR/SP/G            HT/PER
                 (UTC) (F)     (DEG/KT/KT) (MB)    (FT/S)
NORTHPORT PIER   2240   36        CALM      999.0R
SISTER BAY       2220   39     130/  7/ 10   N/A
KEWAUNEE LAKESHO 2224   38     200/  3/  6  998.0
SHEBOYGAN LAKESH 2200   40     220/  6/  7  997.9R
PORT WASHINGTON  2240   36      CALM  /  2  999.3R
KENOSHA   LAKESH 2200   56     210/ 11/ 15  998.0
$$

TC  - TEMPERATURE IN CELSIUS
VSB - VISIBILITY IN STATUTE MILES
WCI - WIND CHILL INDEX
HX  - HEAT INDEX





USA.gov is the U.S. government's official web portal to all federal, state and local government web resources and services.